Regional Weather Roundup
Issued by NWS

Home | Current Version | Previous Version | Text Only | Print | Product List | Glossary Off
Versions: 1 2 3 4 5 6 7 8 9 10 11 12 13 14 15 16 17 18 19 20 21 22 23 24 25 26 27 28 29 30 31 32 33 34 35 36 37 38 39 40 41 42 43 44 45 46 47 48 49 50

000
ASUS45 KSLC 270410
RWRUT

UTAH REGIONAL WEATHER ROUNDUP
NATIONAL WEATHER SERVICE SALT LAKE CITY UT
1000 PM MDT THU MAY 26 2016

UTZ001>011-023>025-270500-

NORTHERN UTAH

CITY           SKY/WX    TMP DP  RH WIND       PRES   REMARKS
BRIGHAM CITY     N/A     59  40  49 CALM      29.96S
HILL AFB       NOT AVBL
LOGAN          CLEAR     55  45  68 CALM      29.95R
OGDEN          CLEAR     57  44  62 CALM      29.95S
PROVO AIRPORT  CLEAR     54  37  54 CALM      29.96S
SALT LAKE CITY PTCLDY    61  38  42 SE7       29.94S
VERNAL         CLOUDY    55  33  43 N5        29.92R
WENDOVER       PTCLDY    61  37  41 NW13      29.98S
HEBER CITY     PTCLDY    50  36  57 N3        30.00S
WEST JORDAN    CLEAR     55  39  54 N3        29.97S

$$

UTZ012>022-026-027-270500-

SOUTHERN/CENTRAL UTAH

CITY           SKY/WX    TMP DP  RH WIND       PRES   REMARKS
BLANDING       CLOUDY    53  35  50 W9        30.03S
BRYCE CANYON   PTCLDY    42  34  73 NW14      30.09S
CEDAR CITY     CLOUDY    53  37  54 CALM      30.04S
DELTA          PTCLDY    50  39  66 S3        29.98R
HANKSVILLE     PTCLDY    59  32  36 SW5       29.93R
MILFORD        MOCLDY    54  43  66 S9        30.00R
MOAB/CYNLANDS  MOCLDY    59  31  34 NW5       29.90R
PRICE          CLEAR     51  31  46 NW12      29.96R
ST GEORGE      CLOUDY    68  39  34 NW6       29.95R
KANAB          CLEAR     54  37  54 N9        30.03S

$$

REGIONAL REPORTS     COLORADO/ARIZONA

CITY           SKY/WX    TMP DP  RH WIND       PRES   REMARKS
CRAIG, CO      CLOUDY    50  37  61 S10       29.94F
GRAND JUNCTION CLOUDY    56  36  47 N8        29.91S
RIFLE          CLOUDY    55  36  48 E7        29.94R
MONTROSE       CLOUDY    52  37  56 W12       29.99R
CORTEZ         CLOUDY    48  35  60 SE7       29.97R
PAGE, AZ       PTCLDY    63  33  32 W7        29.93R
GRAND CANYON   CLEAR     39  27  62 CALM      30.08R
KINGMAN        CLEAR     64  27  24 S9        29.93R
FLAGSTAFF      PTCLDY    42  29  59 CALM      30.09R

$$

REGIONAL REPORTS    NEVADA/IDAHO/WYOMING

CITY           SKY/WX    TMP DP  RH WIND       PRES   REMARKS
LAS VEGAS, NV  PTCLDY    80  31  16 SW7       29.81R
ELY            PTCLDY    50  34  54 W6        30.06R
ELKO           PTCLDY    54  40  59 E6        30.04R
POCATELLO, ID  CLOUDY    50  42  74 S9        29.94F
BURLEY         CLEAR     58  37  45 W10       29.94R
EVANSTON, WY   CLOUDY    46  34  62 NW10      30.05R
ROCK SPRINGS   CLOUDY    51  32  48 NW6       29.99R
KEMMERER         N/A     43  34  70 NW9       30.04R

$$



USA.gov is the U.S. government's official web portal to all federal, state and local government web resources and services.